VU3IZK-13 Weather Reports


time (UTC)temp
F
wind
direction
speed
knots
gust
knots
rain 1hr
in
rain 24hr
in
rain mn
in
humidity
%
barometer
mb
20260507191525 77 166 2.6 5.2 0.00 6.19 0.00 74
20260507190023 76 162 2.6 3.5 0.00 6.19 0.00 73
20260507184603 77 172 2.6 2.6 0.00 6.19 0.00 68
20260507183015 77 25 0.9 4.3 1.96 6.39 1.96 67
20260507181513 76 355 1.7 2.6 0.00 6.39 6.39 72
20260507174537 76 150 0.0 0.0 0.00 6.39 6.39 63
20260507173013 77 149 0.0 0.9 0.00 6.42 6.42 62
20260507171513 77 150 0.9 4.3 0.00 6.42 6.39 70
20260507170035 77 105 0.0 0.0 0.00 6.42 6.39 69
20260507164515 76 105 0.0 0.0 0.00 6.42 6.39 65
20260507163015 76 105 0.0 0.0 0.00 6.44 6.41 64
20260507161515 77 105 0.0 0.0 0.00 6.44 6.39 64
20260507160005 77 105 0.0 0.9 0.00 6.44 6.39 64
20260507154544 77 88 0.9 0.9 0.00 6.44 6.39 63
20260507153022 77 63 0.0 1.7 0.00 6.46 6.41 61
20260507151523 77 122 3.5 3.5 0.00 6.46 6.39 64
20260507150040 77 73 0.0 0.9 0.00 6.46 6.39 65
20260507144520 77 1 0.9 1.7 0.00 6.46 6.39 65
20260507143012 78 283 0.0 1.7 0.00 6.46 6.39 65
20260507141531 78 357 0.0 1.7 0.00 6.46 6.39 64
20260507140006 79 239 0.0 1.7 0.00 6.46 6.39 62
20260507134504 80 88 1.7 5.2 0.00 6.46 6.39 57
20260507133028 80 186 5.2 7.8 0.00 6.46 6.39 57
20260507131524 79 225 3.5 9.6 0.00 6.46 6.39 59
20260507130042 80 152 4.3 11.3 0.00 6.46 6.39 59
20260507124520 81 344 3.5 7.0 0.00 6.46 6.39 55
20260507123037 81 163 7.0 7.8 0.00 6.46 6.39 52
20260507121535 81 106 2.6 8.7 0.00 6.46 6.39 55
20260507120013 81 53 7.0 13.0 0.00 6.46 6.39 54
20260507114510 81 210 11.3 14.8 0.00 6.46 6.39 57
20260507113030 81 279 7.8 16.5 0.00 6.46 6.39 57
20260507111504 81 166 9.6 17.4 0.00 6.46 6.39 57
20260507110022 83 222 11.3 12.2 0.00 6.46 6.39 50
20260507104521 83 148 5.2 10.4 0.00 6.46 6.39 49
20260507103022 83 199 14.8 14.8 0.02 6.46 6.39 47
20260507101541 83 186 3.5 7.0 0.02 6.46 6.39 54
20260507100020 81 165 5.2 5.2 0.01 6.46 6.39 56
20260507094536 79 181 2.6 10.4 0.01 6.46 6.39 58
20260507093033 78 94 2.6 9.6 0.00 6.46 6.39 62
20260507091513 76 0 7.8 21.7 0.00 6.46 6.39 70
20260507090011 76 249 16.5 23.5 0.00 6.46 6.39 68
20260507084531 76 3 10.4 13.9 0.00 6.46 6.39 73
20260507083008 75 172 5.2 7.8 0.00 6.46 6.39 80
20260507081508 73 117 0.9 15.6 0.00 6.46 6.39 73
20260507080031 82 156 13.0 13.0 0.00 6.46 6.39 64
20260507074530 90 193 1.7 7.0 0.00 6.46 6.39 49
20260507073008 89 162 6.1 9.6 0.00 6.46 6.39 50
20260507071509 90 185 4.3 9.6 0.00 6.46 6.39 51
20260507070032 90 169 3.5 9.6 0.00 6.46 6.39 50
20260507064533 90 228 4.3 10.4 0.00 6.46 6.39 52
20260507063012 93 162 6.1 9.6 0.00 6.46 6.39 50
20260507061511 94 124 7.0 11.3 0.00 6.46 6.39 43
20260507054536 98 22 4.3 6.1 0.00 6.46 6.39 29
20260507053010 97 192 0.9 7.0 0.00 6.46 6.39 34
20260507051511 96 171 1.7 7.0 0.00 6.46 6.39 33
20260507050032 95 70 1.7 4.3 0.00 6.46 6.39 33
20260507044513 93 345 2.6 6.1 0.00 6.46 6.39 45
20260507043049 92 43 0.0 6.1 0.00 6.46 6.39 46
20260507041527 90 115 5.2 7.0 0.00 6.46 6.39 48
20260507040023 88 17 0.9 2.6 0.00 6.46 6.39 56
20260507034541 85 294 0.0 3.5 0.00 6.46 6.39 67
20260507033020 83 61 1.7 2.6 0.01 6.46 6.39 72
20260507031517 81 31 1.7 3.5 0.01 6.46 6.39 78
20260507030036 78 48 0.9 3.5 0.01 6.46 6.39 87
20260507024514 76 237 1.7 4.3 0.01 6.46 6.39 91
20260507023010 75 18 4.3 4.3 7.31 6.46 6.39 93
20260507021530 74 0 0.0 3.5 6.50 6.38 6.30 94
20260507020007 74 296 0.0 3.5 4.29 6.16 6.08 94
20260507014546 73 236 0.9 2.6 2.31 5.96 5.88 94
20260507013024 73 209 3.5 5.2 1.12 6.42 6.34 94
20260507011506 73 206 2.6 4.3 7.02 5.97 5.23 94
20260507010005 73 252 0.0 6.1 5.34 5.81 5.06 94
20260507004505 73 279 3.5 5.2 4.56 5.73 4.99 94
20260507003026 73 200 1.7 5.2 1.45 5.29 4.54 94
20260507001526 73 272 0.0 3.5 1.07 4.89 4.15 94
20260507000002 73 296 4.3 5.2 7.25 4.55 3.80 94
20260506234517 73 174 3.5 5.2 3.83 4.20 3.46 94
20260506233016 74 189 1.7 6.1 1.18 3.84 3.09 94
20260506231536 74 239 1.7 4.3 8.05 3.44 2.69 93
20260506230014 74 272 0.9 5.2 5.31 3.17 2.42 94
20260506224511 74 294 2.6 5.2 2.80 2.92 2.17 93
20260506223034 74 211 0.9 2.6 2.33 2.64 1.89 93
20260506221513 74 338 0.9 1.7 1.26 2.53 1.78 93
20260506220013 74 226 0.0 2.6 0.80 2.48 1.73 93
20260506214513 74 0 0.0 1.7 0.49 2.45 1.70 92
20260506213036 74 33 0.0 5.2 6.10 2.41 1.66 92
20260506211515 75 239 0.0 0.9 4.01 2.20 1.45 92
20260506210016 75 226 0.0 3.5 3.39 2.13 1.38 91
20260506204516 75 177 3.5 3.5 1.46 1.94 1.19 91
20260506203039 75 356 0.0 5.2 8.54 1.80 1.05 90
20260506201518 76 304 1.7 3.5 6.51 1.59 8.47 89
20260506200010 76 205 2.6 4.3 4.91 1.43 6.87 88
20260506194532 77 161 1.7 9.6 2.84 1.22 4.80 87
20260506193008 77 296 6.1 8.7 1.96 9.56 2.07 86